Погода в Буденновске

Хотите узнать прогноз погоды в Буденновске? Тогда Вам сюда: Погода в Буденновске

Поиск расширенной информации на нашем сайте:

Полезная информация:

Новости сайта



02.01.2020
Опубликован Долгосрочный прогноз погоды по городам России и ближнего зарубежья на январь 2020 года.
Карты: Прогноз на январь и февраль 2020 года, Сравнение прогнозируемой аномалии приземной температуры воздуха на январь 2020 года по разным моделям.




Погода в Буденновске - сегодня

Время (UTC), дата Ветер
(°,м/с) 
Видим.   Явления Облачность Т
(°С)
Тd
(°С)
f(%) Тe
(°С)
Pmin
(гПа)
dP
(гПа)
Po
(мм)
O2
(г/м3)
Тmin Tmax R s Состояние
почвы
00 19.01.20 020 (С) 4000 м  дымка  10/10 600 м 
[Sc]
+0.4 -0.5 94 +1  1028.9  -0.2  759  305           
03 19.01.20 050 (СВ) 4000 м  дымка  10/10 600 м 
[Sc]
+0.3 -0.9 92 1029.3  0.4  759  306  +0.2         
06 19.01.20 050 (СВ) 4000 м  дымка  10/10 600 м 
[Sc]
+0.5 -0.7 92 1030.8  1.5  760  306           
09 19.01.20 070 (В) 4000 м  слаб. крупа{ливн. осадки}  10/10 600 м кучево-дожд. 
[Cb calv]
+0.8 -0.7 90 1030.2  -0.6  760  305           
12 19.01.20 060 (СВ) 4000 м  дымка{ливн. осадки}  10/10 600 м 
[Sc]
+1 -1.2 85 -1  1029.8  -0.3  760  305           
15 19.01.20 070 (В) 4000 м  дымка  10/10 600 м 
[Sc]
+0.4 -5.2 66 -1  1031.3  1.4  761  307    +1.1  0.1     
18 19.01.20 080 (В) 10 км    10/10 600 м 
[Sc]
-0.8 -5.8 69 -2  1032.2  0.8  761  308           
21 19.01.20 100 (В) 10 км    3/3 600 м 
[Sc]
-1.9 -6.1 73 -3  1032.1  -0.2  761  309           
00 20.01.20 080 (В) 10 км    10/10 600 м 
[Sc]
-1.2 -3.5 84 -2  1032.1  -0.1  761  308           
03 20.01.20 080 (В) 4000 м  дымка  10/10 600 м 
[Sc]
-1.1 -2.8 88 -2  1032.1  761  308  -2.1         
06 20.01.20 090 (В) 10 км    10/10 600 м 
[Sc]
-0.7 -4.2 77 -2  1032.6  0.5  761  308           
09 20.01.20 130 (ЮВ) 10 км    9/9 600 м 
[Sc]
+0.5 -5.2 66 1031.6  -0.9  761  307           
12 20.01.20 120 (ЮВ) 10 км    9/9 600 м 
[Sc]
+0.6 -5.1 66 1030.7  -0.9  760  306           
15 20.01.20 140 (ЮВ) 10 км    10/10 600 м 
[Sc]
-0.4 -4.9 72 1030.6  0.1  760  307    +1.1       
18 20.01.20 230 (ЮЗ) 10 км    10/10 600 м 
[Sc]
-0.6 -4.6 74 -1  1030.5  0.1  760  307           
21 20.01.20 250 (З) 10 км    10/10 600 м 
[Sc]
-1 -5.1 74 -2  1030.2  -0.4  760  308           
00 21.01.20 270 (З) 10 км    10/10 600 м 
[Sc]
-1.1 -4.9 75 -3  1029.3  -0.9  759  308           
03 21.01.20 270 (З) 10 км    10/10 600 м 
[Sc]
-1.6 -5.1 77 -4  1029.2  0.1  759  308  -2         
06 21.01.20 290 (З) 10 км    10/10 600 м 
[Sc]
-1.6 -5.1 77 -5  1030  0.7  760  308           
09 21.01.20 280 (З) 10 км  в посл. час крупа{ливн. осадки}  10/10 300 м кучево-дожд. 
[Cb calv]
-1.2 -4.8 76 -4  1029  -0.9  759  308           
12 21.01.20 290 (З) 10 км  слаб. крупа{ливн. осадки}  10/10 600 м кучево-дожд. 
[Cb calv]
-1 -4.6 77 -4  1028  -1  758  307           
15 21.01.20 290 (З) 10 км  {ливн. осадки}  10/10 600 м 
[Sc]
-1.3 -5.5 73 -5  1027.5  -0.5  758  307    -0.7  0.0     
18 21.01.20 270 (З) 10 км  {ливн. осадки}  10/10 600 м 
[Sc]
-1.6 -4.8 79 -5  1026.3  -1.3  757  307           
21 21.01.20 230 (ЮЗ) 4{10}  10 км    10/10 600 м 
[Sc]
-1.8 -4.6 81 -5  1024.2  -2  755  307           
00 22.01.20 210 (ЮЗ) 4000 м  дымка  9/4 600 м средняя 
[Sc|Ac trans]
-2.8 -4.3 89 -5  1022.6  -1.6  754  307           
Время (UTC), дата Ветер
(°,м/с) 
Видим.   Явления Облачность Т
(°С)
Тd
(°С)
f(%) Тe
(°С)
Pmin
(гПа)
dP
(гПа)
Po
(мм)
O2
(г/м3)
Тmin Tmax R s Состояние
почвы

Для получения пояснительной информации подведите курсор к названию столбца.

ПОГОДА в Буденновске - архив

Всё, что Вы хотите узнать о погоде в Буденновске - удобно и подробно!

Выберите нужную дату (начиная с 1 января 2019* года) и нажмите кнопку "Найти".
Будут отображены архивные сводки погоды по пункту Буденновск, начиная с указанной даты.


Отображать данные в формате CSV (для использования в таблицах Excel)


Внимание! Наш архив погоды предназначен исключительно для личного некоммерческого использования в познавательных целях. Если Вам необходимы официальные справки о состоянии погоды (для производственных, юридических, коммерческих и т.п. целей), обращайтесь в органы Росгидромета.

*Примечание: данная дата относится к архиву по метеостанциям СССР (Россия, СНГ, Балтия).
Архив по метеостанциям Зарубежной Европы и Азии (кроме Китая) хранится 10 дней, по другим регионам земного шара (Китай, Африка, Америка, Австралия, Океания) - 1 день.

Буденновск - район местоположения метеостанции


Название, широта, долгота, высота метеостанции:
Буденновск (Прикумск) 44.8°ш. 44.1°д. 136 м над ур. моря [Российская Федерация]

Дополнительная информация

В oтличие oт бoльшинства пoгoдных сайтoв мы публикуем пoдрoбную метеoинфoрмацию в детальнoм прoфессиoнальнoм фoрмате.

Характеристики температуры и влажнoсти вoздуха измеряются на высoте 2 м в тени вдали oт зданий и деревьев.
Скoрoсть ветра измеряется на высoте 10 м (на урoвне рoста челoвека скoрoсть ветра ниже в 1.5-2 раза). Если метеoстанция нахoдится в гoрoде или в лесу, тo скoрoсть ветра занижена на 2-4 м/с пo сравнению с oткрытым местoм. Скoрoсть ветра над акватoриями крупных рек и oзёр, а также на вершинах хoлмoв на 2-5 м/с выше, чем в oбычных услoвиях.
Атмoсфернoе давление в разных тoчках местнoсти мoжет значительнo oтличаться oт давления на метеoстанции, в зависимoсти oт услoвий рельефа (при пoдъёме на 10 м давление пoнижается примернo на 1 мм рт.ст.).